カタログに戻る

COSMOS 2112

運用中軍事LEO
NORAD 21014·PAYLOAD·🇷🇺 Russia

打ち上げ Dec 10, 1990 から Plesetsk Cosmodrome

Loading…

次のパス (今後24時間)

TLE

最新Source: Space-Track

元期: Sep 14, 2026, 22:25 UTC

1 21014U 90111A   26257.93424234  .00000086  00000-0  39819-4 0  9991
2 21014  74.0470 140.6305 0028294 306.8293  53.0264 14.34335470870141

AllMySatでCOSMOS 2112をリアルタイム追跡

Download on the App Store